TimeEDT,TemperatureF,Dew PointF,Humidity,Sea Level PressureIn,VisibilityMPH,Wind Direction,Wind SpeedMPH,Gust SpeedMPH,PrecipitationIn,Events,Conditions,WindDirDegrees,DateUTC
12:15 AM,33.8,30.2,87,30.21,10.0,South,5.8,-,N/A,,Clear,190,2012-10-11 04:15:00
12:35 AM,32.0,30.2,93,30.21,10.0,South,5.8,-,N/A,,Clear,190,2012-10-11 04:35:00
12:55 AM,32.0,30.2,93,30.21,10.0,South,5.8,-,N/A,,Clear,190,2012-10-11 04:55:00
1:15 AM,32.0,30.2,93,30.21,10.0,South,4.6,-,N/A,,Clear,180,2012-10-11 05:15:00
1:35 AM,32.0,30.2,93,30.21,10.0,South,6.9,-,N/A,,Clear,190,2012-10-11 05:35:00
2:35 AM,33.8,30.2,87,30.21,10.0,Calm,Calm,-,N/A,,Clear,0,2012-10-11 06:35:00
2:55 AM,32.0,28.4,87,30.21,10.0,South,3.5,-,N/A,,Clear,180,2012-10-11 06:55:00
3:35 AM,32.0,28.4,87,30.21,10.0,South,4.6,-,N/A,,Clear,180,2012-10-11 07:35:00
3:55 AM,32.0,28.4,87,30.22,10.0,South,5.8,-,N/A,,Clear,180,2012-10-11 07:55:00
4:15 AM,32.0,28.4,87,30.22,10.0,South,6.9,-,N/A,,Clear,190,2012-10-11 08:15:00
4:35 AM,32.0,28.4,87,30.21,10.0,South,5.8,-,N/A,,Clear,190,2012-10-11 08:35:00
4:55 AM,32.0,28.4,87,30.22,10.0,South,5.8,-,N/A,,Clear,190,2012-10-11 08:55:00
5:15 AM,32.0,28.4,87,30.22,10.0,South,4.6,-,N/A,,Clear,190,2012-10-11 09:15:00
5:35 AM,32.0,28.4,87,30.21,10.0,South,6.9,-,N/A,,Clear,190,2012-10-11 09:35:00
5:55 AM,32.0,28.4,87,30.22,10.0,SSW,5.8,-,N/A,,Clear,200,2012-10-11 09:55:00
6:15 AM,32.0,28.4,87,30.23,10.0,South,5.8,-,N/A,,Clear,190,2012-10-11 10:15:00
6:35 AM,32.0,28.4,87,30.23,10.0,SSW,6.9,-,N/A,,Clear,200,2012-10-11 10:35:00
6:55 AM,32.0,28.4,87,30.23,10.0,South,5.8,-,N/A,,Clear,190,2012-10-11 10:55:00
7:15 AM,32.0,28.4,87,30.23,10.0,South,5.8,-,N/A,,Clear,190,2012-10-11 11:15:00
7:35 AM,32.0,28.4,87,30.24,10.0,South,5.8,-,N/A,,Clear,190,2012-10-11 11:35:00
7:55 AM,32.0,28.4,87,30.24,10.0,SW,5.8,-,N/A,,Clear,220,2012-10-11 11:55:00
8:35 AM,33.8,30.2,87,30.25,10.0,WNW,6.9,-,N/A,,Clear,290,2012-10-11 12:35:00
8:55 AM,35.6,32.0,87,30.25,10.0,WSW,6.9,-,N/A,,Clear,250,2012-10-11 12:55:00
9:15 AM,37.4,32.0,81,30.24,10.0,SSW,8.1,-,N/A,,Clear,200,2012-10-11 13:15:00
9:35 AM,41.0,33.8,76,30.25,10.0,SSW,9.2,16.1,N/A,,Clear,210,2012-10-11 13:35:00
9:55 AM,42.8,33.8,70,30.25,10.0,SW,10.4,-,N/A,,Clear,220,2012-10-11 13:55:00
10:15 AM,46.4,33.8,62,30.25,10.0,SW,11.5,-,N/A,,Clear,220,2012-10-11 14:15:00
10:35 AM,48.2,33.8,58,30.24,10.0,SW,15.0,-,N/A,,Clear,230,2012-10-11 14:35:00
10:55 AM,50.0,33.8,54,30.23,10.0,SW,16.1,-,N/A,,Clear,220,2012-10-11 14:55:00
11:15 AM,51.8,32.0,47,30.24,10.0,SW,20.7,24.2,N/A,,Clear,230,2012-10-11 15:15:00
11:35 AM,51.8,32.0,47,30.23,10.0,SW,17.3,-,N/A,,Clear,220,2012-10-11 15:35:00
11:55 AM,53.6,32.0,44,30.22,10.0,SW,16.1,-,N/A,,Clear,230,2012-10-11 15:55:00
12:15 PM,53.6,32.0,44,30.21,10.0,SW,18.4,23.0,N/A,,Clear,220,2012-10-11 16:15:00
12:35 PM,55.4,32.0,41,30.21,10.0,SW,17.3,21.9,N/A,,Clear,220,2012-10-11 16:35:00
12:55 PM,55.4,32.0,41,30.21,10.0,SW,13.8,18.4,N/A,,Clear,230,2012-10-11 16:55:00
1:15 PM,57.2,32.0,38,30.20,10.0,SSW,17.3,21.9,N/A,,Clear,210,2012-10-11 17:15:00
1:35 PM,57.2,32.0,38,30.19,10.0,SSW,16.1,20.7,N/A,,Clear,210,2012-10-11 17:35:00
1:55 PM,57.2,32.0,38,30.18,10.0,SSW,13.8,25.3,N/A,,Clear,210,2012-10-11 17:55:00
2:15 PM,57.2,32.0,38,30.17,10.0,SW,17.3,24.2,N/A,,Clear,230,2012-10-11 18:15:00
2:35 PM,59.0,32.0,36,30.17,10.0,SW,17.3,23.0,N/A,,Clear,230,2012-10-11 18:35:00
2:55 PM,59.0,32.0,36,30.17,10.0,SW,13.8,25.3,N/A,,Clear,220,2012-10-11 18:55:00
3:35 PM,59.0,32.0,36,30.15,10.0,SSW,15.0,23.0,N/A,,Clear,210,2012-10-11 19:35:00
3:55 PM,59.0,32.0,36,30.14,10.0,SW,13.8,24.2,N/A,,Clear,220,2012-10-11 19:55:00
4:15 PM,59.0,32.0,36,30.13,10.0,SW,13.8,23.0,N/A,,Clear,220,2012-10-11 20:15:00
4:35 PM,59.0,32.0,36,30.14,10.0,WSW,16.1,-,N/A,,Clear,240,2012-10-11 20:35:00
5:15 PM,59.0,32.0,36,30.13,10.0,SW,15.0,20.7,N/A,,Clear,230,2012-10-11 21:15:00
5:35 PM,59.0,32.0,36,30.13,10.0,SW,16.1,19.6,N/A,,Clear,220,2012-10-11 21:35:00
6:35 PM,55.4,33.8,44,30.13,10.0,SW,9.2,-,N/A,,Clear,230,2012-10-11 22:35:00
6:55 PM,55.4,33.8,44,30.13,10.0,SW,10.4,-,N/A,,Clear,220,2012-10-11 22:55:00
7:35 PM,51.8,33.8,50,30.14,10.0,SW,8.1,-,N/A,,Clear,220,2012-10-11 23:35:00
7:55 PM,53.6,33.8,47,30.14,10.0,SSW,10.4,-,N/A,,Clear,210,2012-10-11 23:55:00
8:15 PM,51.8,35.6,54,30.15,10.0,SW,8.1,-,N/A,,Clear,220,2012-10-12 00:15:00
8:35 PM,51.8,35.6,54,30.15,10.0,SSW,6.9,-,N/A,,Clear,200,2012-10-12 00:35:00
9:15 PM,51.8,35.6,54,30.14,10.0,SSW,8.1,-,N/A,,Clear,200,2012-10-12 01:15:00
9:55 PM,50.0,35.6,58,30.16,10.0,SSW,8.1,-,N/A,,Clear,210,2012-10-12 01:55:00
10:15 PM,50.0,35.6,58,30.16,10.0,SW,10.4,-,N/A,,Clear,220,2012-10-12 02:15:00
10:35 PM,50.0,35.6,58,30.16,10.0,SSW,9.2,-,N/A,,Clear,210,2012-10-12 02:35:00
10:55 PM,50.0,35.6,58,30.16,10.0,SSW,8.1,-,N/A,,Scattered Clouds,200,2012-10-12 02:55:00
11:35 PM,50.0,35.6,58,30.17,10.0,SW,9.2,-,N/A,,Scattered Clouds,220,2012-10-12 03:35:00
11:55 PM,50.0,35.6,58,30.16,10.0,SW,9.2,-,N/A,,Scattered Clouds,220,2012-10-12 03:55:00